User: anonymous   Login
Location: Caltech
(34.1382°N, 118.1253°W)
Time: 23:43:23
(UTC-07:00)
Language:

SEDSat Delta rocket - Orbit

View from above orbital plane
View from above orbital plane
View from above satellite
View from above satellite

Ground track
Ground track

The orbit data is extracted from the following two-line orbital elements,

1 25510U 98061C   16272.09447730  .00000333  00000-0  45785-4 0  9991
2 25510  31.4356 203.3661 0328761 276.9587 193.6890 14.37078729939587
Epoch (UTC): 28 September 2016 02:16:02
Eccentricity: 0.0328761
inclination: 31.4356°
perigee height: 533 km
apogee height: 1003 km
right ascension of ascending node: 203.3661°
argument of perigee: 276.9587°
revolutions per day: 14.37078729
mean anomaly at epoch: 193.6890°
orbit number at epoch: 93958

The dashed part of the orbit path shows where the satellite is in the earth's shadow,  

DLR